Location: Eymir
(36.7333°N, 29.7833°E)
Time: 17:07:28
(UTC+00:00)

Cosmos 909 Rocket - Pass Details

Date: 14 January 2026
Orbit: 992 x 2087 km, 65.9° (Epoch: 17 February)

Event Time Altitude Azimuth Distance (km) Brightness Sun altitude
Exits shadow 03:01:17 36° 336° (NNW) 1,629 4.9 -25.9°
Maximum altitude 03:04:19 83° 62° (ENE) 1,128 4.2 -25.3°
Drops below altitude 10° 03:12:02 10° 150° (SSE) 3,309 7.2 -23.8°
Sets 03:15:08 0° 151° (SSE) 4,431 8.0 -23.2°
